Location: Bacea
(45.9500°N, 22.6667°E)
Time: 22:47:59
(UTC+00:00)

Aureole 2 - Pass Details

Date: 16 October 2021
Orbit: 365 x 885 km, 73.9° (Epoch: 26 November)

Event Time Altitude Azimuth Distance (km) Brightness Sun altitude
Rises 16:16:34 0° 337° (NNW) 2,223 8.2 -6.9°
Reaches altitude 10° 16:18:32 10° 336° (NNW) 1,372 7.1 -7.2°
Maximum altitude 16:21:29 81° 250° (WSW) 389 4.2 -7.7°
Drops below altitude 10° 16:24:35 10° 163° (SSE) 1,443 6.8 -8.2°
Sets 16:26:41 0° 162° (SSE) 2,354 7.9 -8.6°
